Location: Franzen
(48.6167°N, 15.3833°E)
Time: 13:44:23
(UTC+00:00)

ARIANE 5 R/B - Pass Details

Date: 06 August 2021
Orbit: 622 x 654 km, 98.1° (Epoch: 23 September)

Event Time Altitude Azimuth Distance (km) Brightness Sun altitude
Exits shadow 21:55:05 - 244° (WSW) 2,105 5.2 -23.1°
Reaches altitude 10° 21:55:31 10° 249° (WSW) 2,031 5.2 -23.2°
Maximum altitude 21:57:16 12° 272° (W) 1,893 5.3 -23.3°
Drops below altitude 10° 21:59:00 10° 296° (WNW) 2,029 5.7 -23.3°
Sets 22:02:37 0° 327° (NNW) 2,937 7.3 -23.5°
